Regional Weather Roundup
Issued by NWS

Home | Current Version | Previous Version | Text Only | Print | Product List | Glossary On
Versions: 1 2 3 4 5 6 7 8 9 10 11 12 13 14 15 16 17 18 19 20 21 22 23 24 25 26 27 28 29 30 31 32 33 34 35 36 37 38 39 40 41 42 43 44 45 46 47 48 49 50
000
ASUS43 KFSD 220502
RWRSD

WEATHER ROUNDUP FOR SOUTH DAKOTA
NATIONAL WEATHER SERVICE SIOUX FALLS SD
1100 PM CST WED FEB 21 2018

NOTE: "FAIR" INDICATES FEW OR NO CLOUDS BELOW 12,000 FEET WITH NO
SIGNIFICANT WEATHER AND/OR OBSTRUCTIONS TO VISIBILITY.


SDZ001>005-009-010-012>017-220600-
NORTHWEST AND NORTH CENTRAL SOUTH DAKOTA

CITY           SKY/WX    TMP DP  RH WIND       PRES   REMARKS
BUFFALO          N/A     -4 -10  75 SE6       30.11F WCI -16
FAITH            N/A     -4  -6  91 SE6       30.25F WCI -16
MOBRIDGE       PTCLDY     3  -3  76 MISG      30.33S
$$

SDZ012>016-024>037-041>051-057-063-072>074-220600-
SOUTHWEST AND SOUTH CENTRAL SOUTH DAKOTA

CITY           SKY/WX    TMP DP  RH WIND       PRES   REMARKS
RAPID CTY ARPT CLEAR      7  -2  66 CALM      30.19F
PIERRE         CLEAR     12   5  73 SE18      30.35S WCI  -6
CUSTER         CLEAR     10   1  67 SW3       30.08S
ELLSWORTH AFB  CLEAR      6  -1  72 CALM      30.17F
PHILIP         PTCLDY     8   3  80 W5        30.28F WCI   0
PINE RIDGE     CLEAR     17   8  67 SW12      30.23F WCI   4
SPEARFISH        N/A      5  -4  66 CALM      30.13F
WINNER         FAIR      21   9  59 S23G32    30.34F WCI   5
$$

SDZ004>011-016>023-039-040-220600-
NORTHEAST SOUTH DAKOTA

CITY           SKY/WX    TMP DP  RH WIND       PRES   REMARKS
ABERDEEN       PTCLDY    -2  -6  83 SE9       30.47F WCI -18
WATERTOWN      CLOUDY     6   0  76 S10       30.47F WCI  -9
BROOKINGS      CLOUDY     8   2  76 SE13      30.49F WCI  -8
SISSETON         N/A     -4  -8  83 CALM      30.53F
$$

SDZ017-020-022-023-036>040-048>070-220600-
SOUTHEAST SOUTH DAKOTA

CITY           SKY/WX    TMP DP  RH WIND       PRES   REMARKS
SIOUX FALLS    CLOUDY    14   6  70 S6        30.52F WCI   5
HURON          PTCLDY     9   3  77 SE9       30.49S WCI  -4
CHAMBERLAIN    PTCLDY     9   4  79 E8        30.41F WCI  -3
MITCHELL       MOCLDY    12   5  73 SE10      30.51F WCI  -1
YANKTON        PTCLDY    16   8  71 SE6       30.53F WCI   7
$$

ABBREVIATIONS USED IN REMARKS
   TC - TEMPERATURE IN CELSIUS
  WCI - WIND CHILL INDEX
   HX - HEAT INDEX
  VSB - VISIBILITY




USA.gov is the U.S. government's official web portal to all federal, state and local government web resources and services.